Regional Weather Roundup
Issued by NWS

Home | Current Version | Previous Version | Text Only | Print | Product List | Glossary Off
Versions: 1 2 3 4 5 6 7 8 9 10 11 12 13 14 15 16 17 18 19 20 21 22 23 24 25 26 27 28 29 30 31 32 33 34 35 36 37 38 39 40 41 42 43 44 45 46 47 48 49 50

867
ASUS44 KLIX 301411
RWRLA
LOUISIANA WEATHER ROUNDUP
NATIONAL WEATHER SERVICE NEW ORLEANS LA
900 AM CDT MON MAR 30 2015

NOTE: "FAIR" INDICATES FEW OR NO CLOUDS BELOW 12,000 FEET WITH NO
      SIGNIFICANT WEATHER AND/OR OBSTRUCTIONS TO VISIBILITY.
      SKY/WX - SKY CONDITION AND SIGNIFICANT WEATHER.
      TMP - AIR TEMPERATURE.    DP   - DEWPOINT TEMPERATURE.
      RH  - RELATIVE HUMIDITY.  PRES - PRESSURE.
      HX  - HEAT INDEX.         WCI  - WIND CHILL INDEX.

*  THESE STATIONS ARE NOT NWS OR FAA STATIONS AND ARE NOT UNDER
   NWS QUALITY CONTROL.

LAZ040-048-061>063-065-066-069-301500-
SOUTHEAST LOUISIANA

CITY           SKY/WX    TMP DP  RH WIND       PRES   REMARKS
N.O. AUDUBON     N/A     73  67  81 MISG        N/A
N.O. INTL ARPT MOSUNNY   69  64  84 CALM      30.25S
N.O. LAKEFRONT PTSUNNY   69  64  84 E3        30.26S
SLIDELL        MOSUNNY   67  65  93 CALM      30.25R
BATON ROUGE    SUNNY     70  64  81 CALM      30.24S
BOOTHVILLE     CLOUDY    72  64  76 SW3       30.27R
BELLE CHASSE   PTSUNNY   69  64  84 CALM      30.25S
BOGALUSA*        N/A     65  62  91 CALM      30.26R
GALLIANO*      SUNNY     64  62  93 CALM      30.27R
NEW ROADS*     LGT RAIN  67  63  87 CALM      30.25S
GONZALES*      CLOUDY    64  64 100 CALM      30.25R FOG
HAMMOND*       SUNNY     68  61  77 CALM      30.26S
HOUMA*         MOSUNNY  N/A N/A N/A SW5       30.26R
PORT FOURCHON* SUNNY     73  66  78 VRB5      30.29R

$$

LAZ041-044-053-054-301500-
SOUTHWEST LOUISIANA

CITY           SKY/WX    TMP DP  RH WIND       PRES   REMARKS
LAKE CHARLES   SUNNY     66  64  93 CALM      30.23R
LAFAYETTE      MOSUNNY   67  65  93 CALM      30.24R
PATTERSON      MOSUNNY   70  63  78 NE5       30.26R
SALT POINT       N/A     71  66  84 CALM      30.23R
NEW IBERIA     MOSUNNY   68  65  90 CALM      30.25R
CHENAULT AIRPK MOSUNNY   64  64 100 CALM      30.23S

$$

LAZ027-028-301500-
CENTRAL LOUISIANA

CITY           SKY/WX    TMP DP  RH WIND       PRES   REMARKS
FORT POLK      SUNNY     66  64  92 S8        30.21S
ALEXANDRIA INT SUNNY     65  62  90 CALM      30.21R
ALEXANDRIA     SUNNY     63  61  93 CALM      30.23R

$$

LAZ001-002-301500-
NORTHWEST LOUISIANA

CITY           SKY/WX    TMP DP  RH WIND       PRES   REMARKS
SHREVEPORT     CLOUDY    67  61  81 SW7       30.19S
BARKSDALE AFB  SUNNY     68  61  80 S3        30.20R
DTN SHREVEPORT SUNNY     68  60  75 VRB7      30.20R

$$

LAZ014-016-301500-
NORTHEAST LOUISIANA

CITY           SKY/WX    TMP DP  RH WIND       PRES   REMARKS
MONROE         CLOUDY    66  63  90 SW6       30.22R
TALLULAH       CLOUDY    65  60  84 SW3       30.22S

$$




USA.gov is the U.S. government's official web portal to all federal, state and local government web resources and services.